Location: Bay Ridge
(40.6340°N, 74.0146°W)
Time: 03:03:55
(UTC+00:00)

Cosmos 1606 - Visible Passes

Search period start: 28 February 2020 00:00
Search period end: 09 March 2020 00:00
Orbit: 503 x 529 km, 82.5° (Epoch: 27 February)

Date Brightness Start Highest point End Pass type
(mag) Time Alt. Az. Time Alt. Az. Time Alt. Az.
28 Feb 3.9 09:50:18 10° SSE 09:53:52 43° E 09:57:28 10° NNE visible
29 Feb 4.3 09:35:35 10° SSE 09:39:01 35° E 09:42:28 10° NNE visible
01 Mar 4.7 09:20:54 10° SSE 09:24:10 28° E 09:27:26 10° NNE visible
01 Mar 4.2 10:57:25 10° WSW 10:59:55 17° WNW 11:02:25 10° NNW visible
02 Mar 5.0 09:06:17 10° SE 09:09:19 23° E 09:12:21 10° NE visible
02 Mar 4.0 10:42:07 10° WSW 10:44:58 20° WNW 10:47:49 10° NNW visible
03 Mar 5.3 08:52:33 14° SE 08:54:28 19° E 08:57:13 10° NE visible
03 Mar 3.7 10:27:39 14° WSW 10:30:01 24° WNW 10:33:08 10° NNW visible
04 Mar 5.5 08:38:55 15° E 08:39:38 16° E 08:42:00 10° NE visible
04 Mar 3.5 10:13:59 25° WSW 10:15:04 29° WNW 10:18:25 10° NNW visible
05 Mar 5.8 08:24:59 13° E 08:24:59 13° E 08:26:38 10° ENE visible
05 Mar 3.2 10:00:03 35° W 10:00:09 35° WNW 10:03:39 10° N visible
06 Mar 6.1 08:10:53 10° ENE 08:10:53 10° ENE 08:10:55 10° ENE visible
06 Mar 3.2 09:45:57 38° NW 09:45:57 38° NW 09:48:51 10° N visible
07 Mar 3.7 09:31:42 33° NNW 09:31:42 33° NNW 09:34:01 10° N visible
08 Mar 4.2 09:17:22 26° N 09:17:22 26° N 09:19:09 10° N visible
